Home > Weather > Uroševac > Past weeks

Flag for Kosovo Past Weather in Uroševac, Kosovo — Yesterday and Last 2 Weeks

Now
68 °F

Passing clouds.


Feels Like: 68 °F
Forecast: 56 / 80 °F
Wind: 6 mph from East

Location: Skopje-Petrovec

Current Time: Aug 25, 2016 at 5:02:15 AM

Latest Report: Aug 25, 2016 at 4:30 AM


Visibility: N/A

Pressure: 30.07 "Hg (28.10 "Hg at 582m altitude)

Humidity: 78%

Dew Point: 61 °F

Location of UroševacLocation

Past Weather in Uroševac — Graph

°F

Uroševac Temperature Yesterday

Maximum temperature yesterday: 82 °F (at 3:30 PM)
Minimum temperature yesterday: 63 °F (at 1:30 AM)
Average temperature yesterday: 71 °F

High & Low Weather Summary for the Past Weeks

 TemperatureHumidityPressure
High91 °F (Aug 16, 4:00 PM)100% (Aug 20, 5:30 AM)30.27 "Hg (Aug 20, 5:30 AM)
Low52 °F (Aug 13, 4:00 AM)26% (Aug 14, 2:00 PM)29.80 "Hg (Aug 17, 3:30 PM)
Average72 °F63%30.03 "Hg
* Reported Aug 10 4:00 AM — Aug 25 4:00 AM, Uroševac, Weather by CustomWeather, © 2016

Note: Actual official high and low records may vary slightly from our data, if they occured in-between our weather recording intervals... More about our weather records

Advertising

Uroševac Weather History for the Previous 24 Hours

Scroll right to see more
 ConditionsComfort  
Time TempWeatherWind HumidityBarometerVisibility
4:00 AM
Thu, Aug 25
72 °FPassing clouds.2 mph69%30.07 "HgN/A
3:30 AM70 °FPassing clouds.2 mph73%30.09 "HgN/A
3:00 AM70 °FPassing clouds.No wind73%30.09 "HgN/A
2:30 AM72 °FPassing clouds.3 mph69%30.09 "HgN/A
2:00 AM72 °FPassing clouds.2 mph69%30.09 "HgN/A
1:30 AM72 °FPassing clouds.2 mph69%30.09 "HgN/A
1:00 AM72 °FPassing clouds.8 mph69%30.09 "HgN/A
12:30 AM73 °FPassing clouds.8 mph65%30.09 "HgN/A
12:00 AM72 °FPassing clouds.8 mph69%30.12 "HgN/A
11:30 PM
Wed, Aug 24
72 °FPassing clouds.6 mph69%30.12 "HgN/A
11:00 PM73 °FPassing clouds.7 mph65%30.12 "HgN/A
10:30 PM73 °FPassing clouds.7 mph65%30.09 "HgN/A
10:00 PM72 °FPassing clouds.8 mph69%30.09 "HgN/A
9:30 PM73 °FPassing clouds.13 mph65%30.09 "HgN/A
9:00 PM73 °FPassing clouds.12 mph65%30.09 "HgN/A
8:30 PM73 °FPassing clouds.7 mph65%30.09 "HgN/A
8:00 PM73 °FPassing clouds.18 mph61%30.09 "HgN/A
7:30 PM75 °FScattered clouds.18 mph57%30.07 "HgN/A
7:00 PM75 °FPassing clouds.17 mph57%30.07 "HgN/A
6:30 PM75 °FPassing clouds.20 mph57%30.07 "HgN/A
6:00 PM77 °FPassing clouds.16 mph57%30.07 "HgN/A
5:00 PM79 °FPassing clouds.17 mph51%30.04 "HgN/A
4:30 PM79 °FScattered clouds.18 mph54%30.04 "HgN/A
4:00 PM81 °FScattered clouds.14 mph51%30.04 "HgN/A
3:30 PM82 °FScattered clouds.9 mph48%30.07 "HgN/A
3:00 PM81 °FScattered clouds.5 mph48%30.07 "HgN/A
2:00 PM81 °FScattered clouds.8 mph48%30.07 "HgN/A
1:30 PM79 °FScattered clouds.5 mph51%30.07 "HgN/A
1:00 PM77 °FScattered clouds.6 mph57%30.07 "HgN/A
12:30 PM79 °FScattered clouds.3 mph54%30.09 "HgN/A
12:00 PM77 °FScattered clouds.6 mph54%30.09 "HgN/A
11:30 AM75 °FBroken clouds.6 mph61%30.09 "HgN/A
11:00 AM73 °FBroken clouds.6 mph61%30.12 "HgN/A
10:30 AM72 °FBroken clouds.5 mph69%30.12 "HgN/A
10:00 AM72 °FScattered clouds.6 mph69%30.12 "HgN/A
9:00 AM70 °FScattered clouds.5 mph73%30.15 "HgN/A
8:30 AM70 °FScattered clouds.5 mph73%30.15 "HgN/A
8:00 AM68 °FScattered clouds.No wind78%30.15 "HgN/A
7:30 AM66 °FScattered clouds.No wind83%30.12 "HgN/A
7:00 AM64 °FBroken clouds.5 mph88%30.12 "HgN/A
6:30 AM64 °FPartly cloudy.2 mph88%30.12 "HgN/A
6:00 AM63 °FOvercast.No wind94%30.12 "HgN/A
5:30 AM63 °FMostly cloudy.2 mph94%30.12 "HgN/A
5:00 AM63 °FDrizzle. Mostly cloudy.3 mph88%30.12 "HgN/A
Weather by CustomWeather, © 2016

See weather overviewHow to use our weather pages